Change the Weather History Date:

Wednesday, November 7, 2012

  Actual Average Record
Temperature  
Mean Temperature 62 °F -  
Max Temperature 67 °F 70 °F 82 °F (2003)
Min Temperature 57 °F 54 °F 44 °F (1998)
Degree Days  
Heating Degree Days 2    
Growing Degree Days 12 (Base 50)    
Moisture  
Dew Point 55 °F    
Average Humidity 78    
Maximum Humidity 94    
Minimum Humidity 53    
Precipitation  
Precipitation 0.00 in - - ()
Sea Level Pressure  
Sea Level Pressure 30.21 in    
Wind  
Wind Speed 6 mph ()    
Max Wind Speed 12 mph    
Max Gust Speed -    
Visibility 6.9 miles    
Events Rain    
Averages and records for this station are not official NWS values.
T = Trace of Precipitation, MM = Missing Value Source: Averaged Metar Reports

Daily Weather History Graph

Daily Weather History Graph

Search for Another Location

Airport or City:

Trip Planner

Search our weather history database for the weather conditions in past years. The results will help you decide how hot, cold, wet, or windy it might be!

Date:

Astronomy

Nov. 07, 2012 Rise Set
Actual Time 5:24 AM SAST 7:04 PM SAST
Civil Twilight 4:57 AM SAST 7:31 PM SAST
Nautical Twilight 4:24 AM SAST 8:04 PM SAST
Astronomical Twilight 3:50 AM SAST 8:38 PM SAST
Moon 12:57 AM SAST (11/7) 12:18 PM SAST (11/7)
Length of Visible Light 14h 34m
Length of Day
13h 40m
Last Quarter, 46% of the Moon is Illuminated
Nov 7
Last Quarter
Nov 14
New
Nov 20
First Quarter
Nov 28
Full
Dec 6
Last Quarter

Hourly Weather History & Observations

Time (SAST) Temp. Dew Point Humidity Pressure Visibility Wind Dir Wind Speed Gust Speed Precip Events Conditions
12:00 AM 60.8 °F 57.2 °F 88% 30.18 in 6.2 mi NW 5.8 mph - N/A   Overcast
1:00 AM 60.8 °F 57.2 °F 88% 30.15 in 6.2 mi WNW 4.6 mph - N/A   Overcast
2:00 AM 60 °F 57 °F 87% 30.16 in 4 mi NW 5.8 mph - -  
2:00 AM 59.0 °F 57.2 °F 94% 30.15 in 4.3 mi NW 5.8 mph - N/A Rain Light Rain
3:00 AM 59.0 °F 57.2 °F 94% 30.15 in 6.2 mi NNW 5.8 mph - N/A   Mostly Cloudy
4:00 AM 59.0 °F 55.4 °F 88% 30.15 in 3.1 mi SSW 9.2 mph - N/A   Heavy Drizzle
5:00 AM 59.0 °F 57.2 °F 94% 30.18 in 6.2 mi South 3.5 mph - N/A   Mostly Cloudy
6:00 AM 59.0 °F 55.4 °F 88% 30.18 in 6.2 mi North 4.6 mph - N/A   Mostly Cloudy
7:00 AM 59.0 °F 57.2 °F 94% 30.21 in 6.2 mi North 3.5 mph - N/A   Mostly Cloudy
8:00 AM 60 °F 55 °F 78% 30.22 in 12 mi North 4.6 mph - -   Partly Cloudy
8:00 AM 60.8 °F 55.4 °F 82% 30.21 in 6.2 mi North 4.6 mph - N/A   Mostly Cloudy
9:00 AM 62.6 °F 55.4 °F 77% 30.21 in 6.2 mi Variable 2.3 mph - N/A   Mostly Cloudy
10:00 AM 64.4 °F 53.6 °F 68% 30.21 in 6.2 mi SW 4.6 mph - N/A   Mostly Cloudy
11:00 AM 65 °F 52 °F 53% 30.23 in 12 mi South 8.1 mph - -   Mostly Cloudy
11:00 AM 64.4 °F 51.8 °F 64% 30.24 in 6.2 mi South 6.9 mph - N/A   Mostly Cloudy
12:00 PM 66.2 °F 51.8 °F 60% 30.21 in 6.2 mi South 6.9 mph - N/A   Partly Cloudy
1:00 PM 66.2 °F 53.6 °F 64% 30.21 in 6.2 mi SSE 10.4 mph - N/A   Partly Cloudy
2:00 PM 66 °F 54 °F 55% 30.22 in 12 mi South 11.5 mph - -   Partly Cloudy
2:00 PM 68.0 °F 53.6 °F 60% 30.21 in 6.2 mi South 10.4 mph - N/A   Scattered Clouds
3:00 PM 68.0 °F 53.6 °F 60% 30.21 in 6.2 mi SSE 9.2 mph - N/A   Scattered Clouds
4:00 PM 64.4 °F 55.4 °F 73% 30.21 in 6.2 mi SE 11.5 mph - N/A   Scattered Clouds
5:00 PM 66 °F 55 °F 60% 30.23 in 12 mi SE 9.2 mph - -   Mostly Cloudy
5:00 PM 66.2 °F 55.4 °F 68% 30.24 in 6.2 mi SE 9.2 mph - N/A   Mostly Cloudy
6:00 PM 62.6 °F 55.4 °F 77% 30.21 in 6.2 mi SE 6.9 mph - N/A   Mostly Cloudy
7:00 PM 60.8 °F 57.2 °F 88% 30.24 in 6.2 mi SE 5.8 mph - N/A   Mostly Cloudy
8:00 PM 61 °F 57 °F 81% 30.27 in 12 mi SE 9.2 mph - -   Mostly Cloudy
8:00 PM 60.8 °F 55.4 °F 82% 30.27 in 6.2 mi ESE 9.2 mph - N/A   Scattered Clouds
9:00 PM 59.0 °F 55.4 °F 88% 30.27 in 6.2 mi East 4.6 mph - N/A   Mostly Cloudy
10:00 PM 59.0 °F 55.4 °F 88% 30.27 in 6.2 mi East 6.9 mph - N/A   Scattered Clouds
11:00 PM 57.2 °F 53.6 °F 88% 30.27 in 6.2 mi East 4.6 mph - N/A   Mostly Cloudy